Tracking 19431 objects as of 18-Dec-2018
HD Live streaming from Space Station
objects crossing your sky now

ARIANE 42L R/B

Track ARIANE 42L R/B now!
10-day predictions


NORAD ID: 25586
Int'l Code: 1998-075B
Perigee: 210.4 km
Apogee: 17,400.6 km
Inclination: 7.5 °
Period: 310.1 minutes
Semi major axis: 15176 km
RCS: 21.3079 m2 (large)
Launch date: December 22, 1998
Source: France (FR)
Launch site: FRENCH GUIANA (FRGUI)

Note: This is a ROCKET BODY
aabbcc
Your satellite tracking list
Your tracking list is empty




NASA's NSSDC Master Catalog

Two Line Element Set (TLE):
1 25586U 98075B   18351.40951546  .00028352  00000-0  82539-3 0  9997
2 25586   7.4689 146.7896 5663401 299.3326  15.9487  4.64350113254790
Source of the keplerian elements: AFSPC